| time (UTC) | temp C | wind direction | speed KPH | gust KPH | rain 1hr cm | rain 24hr cm | rain mn cm | humidity % | barometer mb |
| 20260505014012 | 19 | 131 | 0.0 | 0.0 | 0.00 | 0.00 | 0.00 | 75 | 1014.0 |
| 20260505013012 | 19 | 131 | 0.0 | 1.6 | 0.00 | 0.00 | 0.00 | 74 | 1014.0 |
| 20260505012011 | 20 | 131 | 0.0 | 1.6 | 0.00 | 0.00 | 0.00 | 73 | 1014.0 |
| 20260505011010 | 20 | 131 | 0.0 | 1.6 | 0.00 | 0.00 | 0.00 | 72 | 1013.6 |
| 20260505010009 | 20 | 131 | 0.0 | 1.6 | 0.00 | 0.00 | 0.00 | 70 | 1014.0 |
| 20260505005008 | 21 | 131 | 0.0 | 3.2 | 0.00 | 0.00 | 0.00 | 69 | 1013.6 |
| 20260505004007 | 21 | 132 | 1.6 | 6.4 | 0.00 | 0.00 | 0.00 | 67 | 1013.6 |
| 20260505003006 | 21 | 125 | 1.6 | 6.4 | 0.00 | 0.00 | 0.00 | 66 | 1013.6 |
| 20260505002005 | 21 | 128 | 0.0 | 8.0 | 0.00 | 0.00 | 0.00 | 65 | 1013.6 |
| 20260505001004 | 22 | 120 | 3.2 | 9.7 | 0.00 | 0.00 | 0.00 | 64 | 1013.3 |
| 20260505000003 | 22 | 125 | 1.6 | 9.7 | 0.00 | 0.00 | 0.00 | 63 | 1013.3 |
| 20260504235002 | 22 | 134 | 3.2 | 9.7 | 0.00 | 0.00 | 0.00 | 62 | 1013.3 |
| 20260504233930 | 22 | 105 | 1.6 | 11.3 | 0.00 | 0.00 | 0.00 | 61 | 1012.9 |
| 20260504232929 | 23 | 116 | 4.8 | 12.9 | 0.00 | 0.00 | 0.00 | 60 | 1012.9 |
| 20260504231928 | 23 | 123 | 3.2 | 12.9 | 0.00 | 0.00 | 0.00 | 60 | 1012.9 |
| 20260504230927 | 23 | 110 | 3.2 | 12.9 | 0.00 | 0.00 | 0.00 | 60 | 1012.9 |
| 20260504225926 | 23 | 96 | 6.4 | 11.3 | 0.00 | 0.00 | 0.00 | 58 | 1012.9 |
| 20260504224925 | 23 | 119 | 6.4 | 12.9 | 0.00 | 0.00 | 0.00 | 58 | 1012.9 |
| 20260504223924 | 24 | 57 | 3.2 | 9.7 | 0.00 | 0.00 | 0.00 | 57 | 1012.9 |
| 20260504222923 | 24 | 106 | 3.2 | 14.5 | 0.00 | 0.00 | 0.00 | 57 | 1012.9 |
| 20260504221922 | 24 | 47 | 3.2 | 9.7 | 0.00 | 0.00 | 0.00 | 56 | 1012.9 |
| 20260504220921 | 24 | 87 | 3.2 | 9.7 | 0.00 | 0.00 | 0.00 | 56 | 1012.9 |
| 20260504215849 | 25 | 54 | 3.2 | 9.7 | 0.00 | 0.00 | 0.00 | 55 | 1012.9 |
| 20260504214745 | 25 | 79 | 3.2 | 11.3 | 0.00 | 0.00 | 0.00 | 56 | 1012.9 |
| 20260504213744 | 25 | 137 | 6.4 | 12.9 | 0.00 | 0.00 | 0.00 | 54 | 1012.9 |
| 20260504212744 | 25 | 111 | 4.8 | 11.3 | 0.00 | 0.00 | 0.00 | 54 | 1012.9 |
| 20260504211711 | 25 | 37 | 6.4 | 20.9 | 0.00 | 0.00 | 0.00 | 53 | 1012.9 |
| 20260504210711 | 25 | 67 | 4.8 | 22.5 | 0.00 | 0.00 | 0.00 | 53 | 1013.3 |
| 20260504205710 | 26 | 108 | 6.4 | 20.9 | 0.00 | 0.00 | 0.00 | 52 | 1012.9 |
| 20260504204709 | 26 | 27 | 4.8 | 14.5 | 0.00 | 0.00 | 0.00 | 51 | 1012.9 |
| 20260504203636 | 26 | 60 | 3.2 | 16.1 | 0.00 | 0.00 | 0.00 | 50 | 1012.9 |
| 20260504202605 | 26 | 114 | 3.2 | 9.7 | 0.00 | 0.00 | 0.00 | 50 | 1012.9 |
| 20260504201532 | 26 | 110 | 4.8 | 11.3 | 0.00 | 0.00 | 0.00 | 50 | 1012.9 |
| 20260504200532 | 26 | 103 | 3.2 | 11.3 | 0.00 | 0.00 | 0.00 | 52 | 1013.3 |
| 20260504195530 | 26 | 71 | 4.8 | 16.1 | 0.00 | 0.00 | 0.00 | 50 | 1013.3 |
| 20260504194529 | 26 | 85 | 3.2 | 16.1 | 0.00 | 0.00 | 0.00 | 51 | 1013.6 |
| 20260504193528 | 27 | 54 | 4.8 | 14.5 | 0.00 | 0.00 | 0.00 | 50 | 1013.3 |
| 20260504192527 | 27 | 90 | 4.8 | 12.9 | 0.00 | 0.00 | 0.00 | 50 | 1013.6 |
| 20260504191526 | 27 | 127 | 3.2 | 14.5 | 0.00 | 0.00 | 0.00 | 49 | 1013.6 |
| 20260504190524 | 27 | 106 | 4.8 | 16.1 | 0.00 | 0.00 | 0.00 | 48 | 1014.0 |
| 20260504185524 | 27 | 34 | 4.8 | 14.5 | 0.00 | 0.00 | 0.00 | 49 | 1014.0 |
| 20260504184523 | 27 | 52 | 6.4 | 17.7 | 0.00 | 0.00 | 0.00 | 50 | 1014.0 |
| 20260504183522 | 27 | 55 | 4.8 | 14.5 | 0.00 | 0.00 | 0.00 | 50 | 1014.3 |
| 20260504182521 | 27 | 74 | 6.4 | 14.5 | 0.00 | 0.00 | 0.00 | 50 | 1014.3 |
| 20260504181521 | 27 | 148 | 4.8 | 14.5 | 0.00 | 0.00 | 0.00 | 49 | 1014.7 |
| 20260504180448 | 27 | 30 | 6.4 | 14.5 | 0.00 | 0.00 | 0.00 | 50 | 1014.7 |
| 20260504175447 | 26 | 38 | 4.8 | 16.1 | 0.00 | 0.00 | 0.00 | 51 | 1014.6 |
| 20260504174447 | 27 | 53 | 4.8 | 17.7 | 0.00 | 0.00 | 0.00 | 51 | 1014.6 |
| 20260504173446 | 27 | 33 | 4.8 | 16.1 | 0.00 | 0.00 | 0.00 | 50 | 1014.7 |
| 20260504172342 | 26 | 100 | 4.8 | 12.9 | 0.00 | 0.00 | 0.00 | 50 | 1014.7 |
| 20260504171341 | 26 | 36 | 3.2 | 12.9 | 0.00 | 0.00 | 0.00 | 53 | 1014.6 |
| 20260504170339 | 27 | 54 | 3.2 | 12.9 | 0.00 | 0.00 | 0.00 | 51 | 1014.7 |
| 20260504160334 | 26 | 9 | 3.2 | 19.3 | 0.00 | 0.00 | 0.00 | 50 | 1015.3 |
| 20260504150154 | 24 | 68 | 1.6 | 17.7 | 0.00 | 0.00 | 0.00 | 57 | 1015.7 |
| 20260504141119 | 24 | 23 | 3.2 | 12.9 | 0.00 | 0.00 | 0.00 | 57 | 1015.3 |
| 20260504140118 | 24 | 28 | 4.8 | 16.1 | 0.00 | 0.00 | 0.00 | 56 | 1015.3 |
| 20260504120145 | 17 | 36 | 1.6 | 6.4 | 0.00 | 0.00 | 0.00 | 88 | 1014.6 |
| 20260504081643 | 15 | 16 | 0.0 | 0.0 | 0.00 | 0.00 | 0.00 | 94 | 1013.9 |
| 20260504080642 | 15 | 16 | 0.0 | 0.0 | 0.00 | 0.00 | 0.00 | 93 | 1013.9 |
| 20260504050420 | 18 | 39 | 0.0 | 1.6 | 0.00 | 0.03 | 0.00 | 84 | 1015.0 |
| 20260504045420 | 18 | 40 | 0.0 | 1.6 | 0.00 | 0.03 | 0.00 | 84 | 1015.3 |
| 20260504044419 | 18 | 40 | 0.0 | 1.6 | 0.00 | 0.03 | 0.00 | 84 | 1015.3 |
| 20260504043417 | 18 | 39 | 0.0 | 1.6 | 0.00 | 0.03 | 0.00 | 84 | 1015.3 |
| 20260504042417 | 18 | 18 | 0.0 | 1.6 | 0.00 | 0.03 | 0.00 | 84 | 1015.3 |
| 20260504041416 | 18 | 70 | 1.6 | 1.6 | 0.00 | 0.03 | 0.00 | 83 | 1015.3 |
| 20260504040414 | 18 | 71 | 0.0 | 1.6 | 0.00 | 0.03 | 0.00 | 83 | 1015.3 |
| 20260504035414 | 18 | 37 | 0.0 | 1.6 | 0.00 | 0.03 | 0.03 | 83 | 1015.3 |
| 20260504034413 | 18 | 37 | 0.0 | 1.6 | 0.00 | 0.05 | 0.03 | 83 | 1015.3 |
| 20260504033412 | 18 | 37 | 0.0 | 0.0 | 0.00 | 0.08 | 0.03 | 83 | 1015.3 |
| 20260504032411 | 18 | 37 | 0.0 | 1.6 | 0.00 | 0.10 | 0.03 | 83 | 1015.3 |
| 20260504031410 | 18 | 37 | 0.0 | 1.6 | 0.00 | 0.13 | 0.03 | 82 | 1015.3 |
| 20260504030409 | 18 | 36 | 1.6 | 1.6 | 0.00 | 0.13 | 0.03 | 82 | 1015.3 |
| 20260504025408 | 18 | 50 | 0.0 | 1.6 | 0.00 | 0.15 | 0.03 | 81 | 1015.3 |
| 20260504024408 | 18 | 32 | 1.6 | 4.8 | 0.00 | 0.15 | 0.03 | 80 | 1015.3 |
| 20260504023407 | 18 | 28 | 1.6 | 6.4 | 0.00 | 0.15 | 0.03 | 80 | 1015.3 |
| 20260504022406 | 19 | 68 | 0.0 | 4.8 | 0.00 | 0.15 | 0.03 | 79 | 1015.3 |
| 20260504021405 | 19 | 356 | 1.6 | 4.8 | 0.00 | 0.18 | 0.03 | 79 | 1015.3 |
| 20260504020302 | 19 | 16 | 3.2 | 6.4 | 0.00 | 0.18 | 0.03 | 78 | 1015.0 |
| 20260504015301 | 19 | 54 | 1.6 | 6.4 | 0.00 | 0.18 | 0.03 | 78 | 1015.0 |